| time (UTC) | temp F | wind direction | speed MPH | gust MPH | rain 1hr in | rain 24hr in | rain mn in | humidity % | barometer mb |
| 20260905080254 | 58 | 104 | 5.0 | 7.0 | 0.00 | 0.00 | 0.00 | 51 | 1015.6 |
| 20260905075752 | 58 | 81 | 3.0 | 6.0 | 0.00 | 0.00 | 0.00 | 50 | 1015.9 |
| 20260905075247 | 58 | 67 | 6.0 | 9.0 | 0.00 | 0.00 | 0.00 | 50 | 1015.6 |
| 20260905074746 | 58 | 96 | 5.0 | 9.0 | 0.00 | 0.00 | 0.00 | 50 | 1015.9 |
| 20260905074242 | 58 | 52 | 7.0 | 10.0 | 0.00 | 0.00 | 0.00 | 50 | 1015.8 |
| 20260905073737 | 58 | 56 | 5.0 | 7.0 | 0.00 | 0.00 | 0.00 | 51 | 1015.8 |
| 20260905073233 | 59 | 64 | 4.0 | 7.0 | 0.00 | 0.00 | 0.00 | 50 | 1015.7 |
| 20260905072732 | 58 | 85 | 3.0 | 9.0 | 0.00 | 0.00 | 0.00 | 51 | 1015.8 |
| 20260905072228 | 58 | 57 | 3.0 | 8.0 | 0.00 | 0.00 | 0.00 | 52 | 1015.7 |
| 20260905071724 | 58 | 58 | 5.0 | 10.0 | 0.00 | 0.00 | 0.00 | 51 | 1015.7 |
| 20260905071220 | 59 | 70 | 2.0 | 7.0 | 0.00 | 0.00 | 0.00 | 50 | 1015.8 |
| 20260905070715 | 59 | 22 | 4.0 | 6.0 | 0.00 | 0.00 | 0.00 | 50 | 1015.7 |
| 20260905070211 | 58 | 102 | 3.0 | 6.0 | 0.00 | 0.00 | 0.00 | 51 | 1015.7 |
| 20260905065709 | 58 | 103 | 4.0 | 6.0 | 0.00 | 0.00 | 0.00 | 51 | 1015.5 |
| 20260905065204 | 59 | 47 | 4.0 | 6.0 | 0.00 | 0.00 | 0.00 | 52 | 1015.6 |
| 20260905064659 | 59 | 60 | 2.0 | 6.0 | 0.00 | 0.00 | 0.00 | 50 | 1015.7 |
| 20260905064155 | 59 | 55 | 6.0 | 7.0 | 0.00 | 0.00 | 0.00 | 50 | 1015.2 |
| 20260905063653 | 59 | 72 | 3.0 | 9.0 | 0.00 | 0.00 | 0.00 | 50 | 1015.5 |
| 20260905063150 | 59 | 70 | 5.0 | 7.0 | 0.00 | 0.00 | 0.00 | 51 | 1015.4 |
| 20260905062645 | 59 | 54 | 2.0 | 8.0 | 0.00 | 0.00 | 0.00 | 51 | 1015.5 |
| 20260905062144 | 60 | 43 | 7.0 | 8.0 | 0.00 | 0.00 | 0.00 | 50 | 1015.4 |
| 20260905061638 | 60 | 79 | 2.0 | 6.0 | 0.00 | 0.00 | 0.00 | 50 | 1015.6 |
| 20260905061132 | 60 | 22 | 4.0 | 5.0 | 0.00 | 0.00 | 0.00 | 50 | 1015.0 |
| 20260905060628 | 60 | 52 | 3.0 | 5.0 | 0.00 | 0.00 | 0.00 | 50 | 1015.0 |
| 20260905060125 | 60 | 70 | 3.0 | 6.0 | 0.00 | 0.00 | 0.00 | 51 | 1014.9 |
| 20260905055622 | 60 | 49 | 3.0 | 5.0 | 0.00 | 0.00 | 0.00 | 51 | 1015.2 |
| 20260905055118 | 60 | 13 | 3.0 | 5.0 | 0.00 | 0.00 | 0.00 | 51 | 1015.0 |
| 20260905054614 | 60 | 99 | 1.0 | 4.0 | 0.00 | 0.00 | 0.00 | 51 | 1015.1 |
| 20260905054108 | 60 | 53 | 2.0 | 4.0 | 0.00 | 0.00 | 0.00 | 52 | 1015.1 |
| 20260905053603 | 60 | 34 | 3.0 | 5.0 | 0.00 | 0.00 | 0.00 | 52 | 1015.0 |
| 20260905053058 | 61 | 48 | 3.0 | 5.0 | 0.00 | 0.00 | 0.00 | 51 | 1015.0 |
| 20260905052557 | 61 | 44 | 2.0 | 5.0 | 0.00 | 0.00 | 0.00 | 51 | 1014.8 |
| 20260905052052 | 61 | 26 | 3.0 | 7.0 | 0.00 | 0.00 | 0.00 | 51 | 1014.8 |
| 20260905051547 | 61 | 56 | 4.0 | 6.0 | 0.00 | 0.00 | 0.00 | 50 | 1014.8 |
| 20260905051038 | 62 | 54 | 3.0 | 6.0 | 0.00 | 0.00 | 0.00 | 49 | 1014.8 |
| 20260905050534 | 62 | 62 | 3.0 | 6.0 | 0.00 | 0.00 | 0.00 | 49 | 1014.7 |
| 20260905050031 | 62 | 44 | 6.0 | 6.0 | 0.00 | 0.00 | 0.00 | 48 | 1014.7 |
| 20260905045525 | 62 | 44 | 3.0 | 4.0 | 0.00 | 0.00 | 0.00 | 48 | 1014.7 |
| 20260905045020 | 62 | 47 | 3.0 | 4.0 | 0.00 | 0.00 | 0.00 | 49 | 1014.5 |
| 20260905044514 | 62 | 52 | 3.0 | 3.0 | 0.00 | 0.00 | 0.00 | 48 | 1014.7 |
| 20260905044009 | 63 | 41 | 4.0 | 4.0 | 0.00 | 0.00 | 0.00 | 47 | 1014.5 |
| 20260905043508 | 62 | 46 | 3.0 | 3.0 | 0.00 | 0.00 | 0.00 | 49 | 1014.7 |
| 20260905043003 | 62 | 48 | 2.0 | 3.0 | 0.00 | 0.00 | 0.00 | 50 | 1014.8 |
| 20260905042456 | 62 | 73 | 2.0 | 2.0 | 0.00 | 0.00 | 0.00 | 50 | 1014.5 |
| 20260905041952 | 63 | 67 | 2.0 | 2.0 | 0.00 | 0.00 | 0.00 | 50 | 1014.7 |
| 20260905041448 | 62 | 47 | 2.0 | 2.0 | 0.00 | 0.00 | 0.00 | 50 | 1014.4 |
| 20260905040942 | 63 | 54 | 2.0 | 2.0 | 0.00 | 0.00 | 0.00 | 50 | 1014.4 |
| 20260905040436 | 62 | 55 | 2.0 | 3.0 | 0.00 | 0.00 | 0.00 | 49 | 1014.3 |
| 20260905035936 | 62 | 72 | 1.0 | 2.0 | 0.00 | 0.00 | 0.00 | 49 | 1014.2 |
| 20260905035431 | 63 | 352 | 0.0 | 1.0 | 0.00 | 0.00 | 0.00 | 51 | 1014.3 |
| 20260905034928 | 64 | 22 | 0.0 | 1.0 | 0.00 | 0.00 | 0.00 | 49 | 1014.2 |
| 20260905034423 | 65 | 351 | 2.0 | 2.0 | 0.00 | 0.00 | 0.00 | 45 | 1014.1 |
| 20260905033922 | 65 | 357 | 2.0 | 2.0 | 0.00 | 0.00 | 0.00 | 45 | 1014.1 |
| 20260905033417 | 65 | 9 | 2.0 | 2.0 | 0.00 | 0.00 | 0.00 | 47 | 1014.1 |
| 20260905032917 | 66 | 55 | 1.0 | 2.0 | 0.00 | 0.00 | 0.00 | 46 | 1013.9 |
| 20260905032412 | 66 | 0 | 0.0 | 1.0 | 0.00 | 0.00 | 0.00 | 44 | 1013.8 |
| 20260905031907 | 67 | 343 | 1.0 | 2.0 | 0.00 | 0.00 | 0.00 | 43 | 1013.8 |
| 20260905031403 | 67 | 332 | 2.0 | 2.0 | 0.00 | 0.00 | 0.00 | 42 | 1013.6 |
| 20260905030858 | 68 | 339 | 1.0 | 2.0 | 0.00 | 0.00 | 0.00 | 41 | 1013.5 |
| 20260905030353 | 68 | 329 | 2.0 | 2.0 | 0.00 | 0.00 | 0.00 | 41 | 1013.4 |
| 20260905025852 | 68 | 319 | 2.0 | 2.0 | 0.00 | 0.00 | 0.00 | 43 | 1013.4 |
| 20260905025347 | 67 | 314 | 3.0 | 3.0 | 0.00 | 0.00 | 0.00 | 43 | 1013.6 |
| 20260905024844 | 67 | 318 | 2.0 | 2.0 | 0.00 | 0.00 | 0.00 | 45 | 1013.1 |
| 20260905024344 | 68 | 4 | 1.0 | 2.0 | 0.00 | 0.00 | 0.00 | 45 | 1013.1 |
| 20260905023839 | 68 | 1 | 2.0 | 2.0 | 0.00 | 0.00 | 0.00 | 43 | 1012.8 |
| 20260905023336 | 69 | 18 | 1.0 | 2.0 | 0.00 | 0.00 | 0.00 | 42 | 1013.0 |
| 20260905022834 | 70 | 22 | 1.0 | 2.0 | 0.00 | 0.00 | 0.00 | 40 | 1012.9 |
| 20260905022330 | 70 | 354 | 1.0 | 2.0 | 0.00 | 0.00 | 0.00 | 39 | 1013.0 |
| 20260905021830 | 70 | 325 | 1.0 | 2.0 | 0.00 | 0.00 | 0.00 | 39 | 1013.0 |
| 20260905021325 | 71 | 344 | 2.0 | 2.0 | 0.00 | 0.00 | 0.00 | 38 | 1012.9 |
| 20260905020820 | 71 | 289 | 1.0 | 2.0 | 0.00 | 0.00 | 0.00 | 40 | 1012.9 |
| 20260905020315 | 71 | 279 | 1.0 | 2.0 | 0.00 | 0.00 | 0.00 | 37 | 1013.0 |
| 20260905015813 | 72 | 295 | 1.0 | 2.0 | 0.00 | 0.00 | 0.00 | 37 | 1013.0 |
| 20260905015308 | 73 | 26 | 0.0 | 2.0 | 0.00 | 0.00 | 0.00 | 37 | 1012.8 |
| 20260905014807 | 74 | 333 | 0.0 | 3.0 | 0.00 | 0.00 | 0.00 | 35 | 1012.8 |
| 20260905014303 | 74 | 254 | 0.0 | 3.0 | 0.00 | 0.00 | 0.00 | 34 | 1013.0 |
| 20260905013758 | 74 | 255 | 1.0 | 4.0 | 0.00 | 0.00 | 0.00 | 33 | 1012.9 |
| 20260905013254 | 75 | 339 | 0.0 | 4.0 | 0.00 | 0.00 | 0.00 | 32 | 1012.9 |
| 20260905012749 | 76 | 290 | 1.0 | 4.0 | 0.00 | 0.00 | 0.00 | 31 | 1012.9 |
| 20260905012245 | 76 | 229 | 2.0 | 5.0 | 0.00 | 0.00 | 0.00 | 31 | 1012.8 |
| 20260905011742 | 77 | 244 | 2.0 | 4.0 | 0.00 | 0.00 | 0.00 | 30 | 1012.7 |
| 20260905011237 | 76 | 221 | 5.0 | 8.0 | 0.00 | 0.00 | 0.00 | 29 | 1012.7 |
| 20260905010732 | 77 | 256 | 2.0 | 3.0 | 0.00 | 0.00 | 0.00 | 31 | 1012.9 |
| 20260905010227 | 78 | 276 | 2.0 | 8.0 | 0.00 | 0.00 | 0.00 | 30 | 1012.9 |
| 20260905005724 | 78 | 267 | 2.0 | 7.0 | 0.00 | 0.00 | 0.00 | 28 | 1012.9 |
| 20260905005219 | 78 | 272 | 2.0 | 6.0 | 0.00 | 0.00 | 0.00 | 30 | 1012.9 |
| 20260905004713 | 79 | 260 | 3.0 | 11.0 | 0.00 | 0.00 | 0.00 | 28 | 1012.9 |
| 20260905004209 | 79 | 226 | 4.0 | 5.0 | 0.00 | 0.00 | 0.00 | 28 | 1012.7 |
| 20260905003709 | 79 | 204 | 3.0 | 6.0 | 0.00 | 0.00 | 0.00 | 27 | 1012.9 |
| 20260905003205 | 80 | 260 | 4.0 | 5.0 | 0.00 | 0.00 | 0.00 | 27 | 1012.8 |
| 20260905002700 | 81 | 265 | 5.0 | 7.0 | 0.00 | 0.00 | 0.00 | 26 | 1012.8 |
| 20260905002200 | 82 | 225 | 5.0 | 9.0 | 0.00 | 0.00 | 0.00 | 26 | 1012.9 |
| 20260905001655 | 82 | 192 | 6.0 | 6.0 | 0.00 | 0.00 | 0.00 | 25 | 1012.9 |
| 20260905001154 | 82 | 264 | 6.0 | 6.0 | 0.00 | 0.00 | 0.00 | 25 | 1013.1 |
| 20260905000650 | 82 | 271 | 3.0 | 5.0 | 0.00 | 0.00 | 0.00 | 25 | 1013.0 |
| 20260905000145 | 82 | 277 | 4.0 | 7.0 | 0.00 | 0.00 | 0.00 | 25 | 1012.9 |
| 20260904235645 | 82 | 212 | 3.0 | 10.0 | 0.00 | 0.00 | 0.00 | 24 | 1013.1 |
| 20260904235144 | 83 | 206 | 7.0 | 12.0 | 0.00 | 0.00 | 0.00 | 24 | 1013.2 |
| 20260904234640 | 83 | 288 | 3.0 | 10.0 | 0.00 | 0.00 | 0.00 | 25 | 1012.8 |
| 20260904234135 | 83 | 298 | 3.0 | 9.0 | 0.00 | 0.00 | 0.00 | 26 | 1012.9 |
| 20260904233631 | 83 | 195 | 5.0 | 6.0 | 0.00 | 0.00 | 0.00 | 25 | 1012.8 |
| 20260904233127 | 83 | 301 | 2.0 | 15.0 | 0.00 | 0.00 | 0.00 | 24 | 1012.8 |
| 20260904232623 | 83 | 255 | 4.0 | 8.0 | 0.00 | 0.00 | 0.00 | 25 | 1012.7 |
| 20260904232119 | 83 | 314 | 4.0 | 13.0 | 0.00 | 0.00 | 0.00 | 25 | 1012.7 |
| 20260904231615 | 84 | 200 | 5.0 | 6.0 | 0.00 | 0.00 | 0.00 | 25 | 1012.7 |
| 20260904231114 | 84 | 285 | 5.0 | 15.0 | 0.00 | 0.00 | 0.00 | 25 | 1012.7 |
| 20260904230609 | 84 | 239 | 4.0 | 7.0 | 0.00 | 0.00 | 0.00 | 25 | 1012.7 |
| 20260904230105 | 84 | 255 | 2.0 | 6.0 | 0.00 | 0.00 | 0.00 | 28 | 1012.4 |
| 20260904225602 | 84 | 311 | 10.0 | 15.0 | 0.00 | 0.00 | 0.00 | 26 | 1013.0 |
| 20260904225057 | 84 | 320 | 4.0 | 11.0 | 0.00 | 0.00 | 0.00 | 26 | 1013.0 |
| 20260904224552 | 84 | 200 | 4.0 | 11.0 | 0.00 | 0.00 | 0.00 | 26 | 1012.9 |
| 20260904224046 | 84 | 274 | 2.0 | 11.0 | 0.00 | 0.00 | 0.00 | 26 | 1012.9 |
| 20260904223545 | 86 | 177 | 4.0 | 6.0 | 0.00 | 0.00 | 0.00 | 26 | 1013.0 |
| 20260904223041 | 86 | 276 | 3.0 | 9.0 | 0.00 | 0.00 | 0.00 | 29 | 1013.0 |
| 20260904222537 | 86 | 275 | 3.0 | 6.0 | 0.00 | 0.00 | 0.00 | 27 | 1012.9 |
| 20260904222032 | 84 | 100 | 2.0 | 10.0 | 0.00 | 0.00 | 0.00 | 29 | 1013.0 |
| 20260904221526 | 85 | 245 | 4.0 | 6.0 | 0.00 | 0.00 | 0.00 | 28 | 1013.1 |
| 20260904221021 | 86 | 234 | 4.0 | 6.0 | 0.00 | 0.00 | 0.00 | 28 | 1012.8 |
| 20260904220520 | 85 | 161 | 2.0 | 11.0 | 0.00 | 0.00 | 0.00 | 27 | 1013.0 |
| 20260904220016 | 84 | 295 | 5.0 | 11.0 | 0.00 | 0.00 | 0.00 | 29 | 1013.2 |
| 20260904215511 | 84 | 280 | 4.0 | 15.0 | 0.00 | 0.00 | 0.00 | 30 | 1013.1 |
| 20260904215006 | 83 | 254 | 3.0 | 11.0 | 0.00 | 0.00 | 0.00 | 31 | 1013.2 |
| 20260904214502 | 83 | 314 | 2.0 | 4.0 | 0.00 | 0.00 | 0.00 | 32 | 1013.2 |
| 20260904213956 | 82 | 290 | 3.0 | 7.0 | 0.00 | 0.00 | 0.00 | 33 | 1013.4 |
| 20260904213455 | 84 | 225 | 3.0 | 9.0 | 0.00 | 0.00 | 0.00 | 31 | 1013.5 |
| 20260904212951 | 85 | 265 | 3.0 | 7.0 | 0.00 | 0.00 | 0.00 | 32 | 1013.1 |
| 20260904212451 | 83 | 229 | 5.0 | 11.0 | 0.00 | 0.00 | 0.00 | 31 | 1013.5 |
| 20260904211946 | 82 | 238 | 4.0 | 11.0 | 0.00 | 0.00 | 0.00 | 32 | 1013.5 |
| 20260904211446 | 80 | 236 | 7.0 | 10.0 | 0.00 | 0.00 | 0.00 | 33 | 1013.7 |
| 20260904210942 | 81 | 213 | 9.0 | 10.0 | 0.00 | 0.00 | 0.00 | 31 | 1013.5 |
| 20260904210440 | 82 | 262 | 2.0 | 6.0 | 0.00 | 0.00 | 0.00 | 33 | 1013.7 |
| 20260904205936 | 82 | 343 | 3.0 | 9.0 | 0.00 | 0.00 | 0.00 | 31 | 1013.8 |
| 20260904205432 | 83 | 265 | 2.0 | 15.0 | 0.00 | 0.00 | 0.00 | 30 | 1013.8 |
| 20260904204929 | 83 | 260 | 3.0 | 5.0 | 0.00 | 0.00 | 0.00 | 30 | 1013.9 |
| 20260904204424 | 83 | 180 | 3.0 | 8.0 | 0.00 | 0.00 | 0.00 | 28 | 1014.2 |
| 20260904203920 | 84 | 185 | 7.0 | 8.0 | 0.00 | 0.00 | 0.00 | 29 | 1013.8 |
| 20260904203417 | 84 | 237 | 5.0 | 11.0 | 0.00 | 0.00 | 0.00 | 30 | 1013.8 |
| 20260904202912 | 85 | 199 | 2.0 | 6.0 | 0.00 | 0.00 | 0.00 | 30 | 1014.2 |
| 20260904202408 | 84 | 288 | 4.0 | 7.0 | 0.00 | 0.00 | 0.00 | 33 | 1014.3 |
| 20260904201904 | 83 | 230 | 6.0 | 13.0 | 0.00 | 0.00 | 0.00 | 29 | 1014.3 |
| 20260904201359 | 82 | 168 | 9.0 | 11.0 | 0.00 | 0.00 | 0.00 | 32 | 1014.4 |
| 20260904200855 | 81 | 275 | 3.0 | 8.0 | 0.00 | 0.00 | 0.00 | 35 | 1014.2 |
| 20260904200353 | 82 | 192 | 1.0 | 9.0 | 0.00 | 0.00 | 0.00 | 36 | 1014.4 |
| 20260904195848 | 82 | 184 | 4.0 | 13.0 | 0.00 | 0.00 | 0.00 | 34 | 1014.5 |
| 20260904195346 | 80 | 267 | 0.0 | 15.0 | 0.00 | 0.00 | 0.00 | 37 | 1014.4 |
| 20260904194841 | 82 | 201 | 5.0 | 7.0 | 0.00 | 0.00 | 0.00 | 36 | 1014.5 |
| 20260904194340 | 79 | 134 | 4.0 | 12.0 | 0.00 | 0.00 | 0.00 | 36 | 1014.7 |
| 20260904193835 | 82 | 253 | 3.0 | 5.0 | 0.00 | 0.00 | 0.00 | 37 | 1014.9 |
| 20260904193331 | 80 | 238 | 4.0 | 11.0 | 0.00 | 0.00 | 0.00 | 38 | 1014.9 |
| 20260904192826 | 81 | 258 | 3.0 | 6.0 | 0.00 | 0.00 | 0.00 | 38 | 1015.0 |
| 20260904192321 | 80 | 130 | 7.0 | 10.0 | 0.00 | 0.00 | 0.00 | 36 | 1015.1 |
| 20260904191819 | 80 | 278 | 2.0 | 12.0 | 0.00 | 0.00 | 0.00 | 38 | 1015.2 |
| 20260904191315 | 78 | 165 | 10.0 | 16.0 | 0.00 | 0.00 | 0.00 | 36 | 1015.1 |
| 20260904190811 | 79 | 235 | 2.0 | 10.0 | 0.00 | 0.00 | 0.00 | 38 | 1015.2 |
| 20260904190306 | 80 | 237 | 2.0 | 9.0 | 0.00 | 0.00 | 0.00 | 37 | 1015.0 |
| 20260904185803 | 78 | 166 | 5.0 | 15.0 | 0.00 | 0.00 | 0.00 | 39 | 1015.2 |
| 20260904185258 | 78 | 185 | 9.0 | 12.0 | 0.00 | 0.00 | 0.00 | 38 | 1015.1 |
| 20260904184756 | 80 | 193 | 8.0 | 9.0 | 0.00 | 0.00 | 0.00 | 38 | 1015.5 |
| 20260904184252 | 80 | 264 | 3.0 | 7.0 | 0.00 | 0.00 | 0.00 | 40 | 1015.4 |
| 20260904183748 | 80 | 170 | 8.0 | 12.0 | 0.00 | 0.00 | 0.00 | 37 | 1015.5 |
| 20260904183248 | 79 | 168 | 2.0 | 13.0 | 0.00 | 0.00 | 0.00 | 40 | 1015.5 |
| 20260904182744 | 79 | 157 | 3.0 | 9.0 | 0.00 | 0.00 | 0.00 | 39 | 1015.5 |
| 20260904182239 | 78 | 191 | 4.0 | 12.0 | 0.00 | 0.00 | 0.00 | 40 | 1015.8 |
| 20260904181734 | 79 | 211 | 5.0 | 7.0 | 0.00 | 0.00 | 0.00 | 39 | 1015.6 |
| 20260904181234 | 78 | 329 | 1.0 | 8.0 | 0.00 | 0.00 | 0.00 | 40 | 1015.7 |
| 20260904180729 | 78 | 308 | 2.0 | 18.0 | 0.00 | 0.00 | 0.00 | 40 | 1015.6 |
| 20260904180225 | 78 | 298 | 6.0 | 9.0 | 0.00 | 0.00 | 0.00 | 42 | 1015.4 |
| 20260904175723 | 78 | 216 | 2.0 | 11.0 | 0.00 | 0.00 | 0.00 | 40 | 1015.6 |
| 20260904175222 | 79 | 166 | 7.0 | 13.0 | 0.00 | 0.00 | 0.00 | 38 | 1015.8 |
| 20260904174717 | 78 | 278 | 2.0 | 8.0 | 0.00 | 0.00 | 0.00 | 41 | 1015.7 |
| 20260904174213 | 77 | 201 | 5.0 | 13.0 | 0.00 | 0.00 | 0.00 | 40 | 1015.8 |
| 20260904173709 | 78 | 183 | 6.0 | 8.0 | 0.00 | 0.00 | 0.00 | 38 | 1015.7 |
| 20260904173203 | 77 | 163 | 9.0 | 10.0 | 0.00 | 0.00 | 0.00 | 38 | 1015.6 |
| 20260904172700 | 78 | 250 | 3.0 | 6.0 | 0.00 | 0.00 | 0.00 | 40 | 1015.6 |
| 20260904172159 | 77 | 227 | 4.0 | 9.0 | 0.00 | 0.00 | 0.00 | 39 | 1015.7 |
| 20260904171654 | 77 | 274 | 6.0 | 7.0 | 0.00 | 0.00 | 0.00 | 39 | 1015.5 |
| 20260904171149 | 77 | 100 | 4.0 | 6.0 | 0.00 | 0.00 | 0.00 | 39 | 1015.7 |
| 20260904170645 | 77 | 201 | 1.0 | 8.0 | 0.00 | 0.00 | 0.00 | 38 | 1015.6 |
| 20260904170141 | 76 | 206 | 3.0 | 7.0 | 0.00 | 0.00 | 0.00 | 41 | 1015.6 |
| 20260904165639 | 75 | 284 | 3.0 | 9.0 | 0.00 | 0.00 | 0.00 | 40 | 1015.6 |
| 20260904165139 | 75 | 257 | 6.0 | 13.0 | 0.00 | 0.00 | 0.00 | 39 | 1015.7 |
| 20260904164634 | 75 | 202 | 6.0 | 14.0 | 0.00 | 0.00 | 0.00 | 40 | 1015.6 |
| 20260904164129 | 74 | 269 | 0.0 | 7.0 | 0.00 | 0.00 | 0.00 | 40 | 1015.7 |
| 20260904163624 | 74 | 176 | 8.0 | 9.0 | 0.00 | 0.00 | 0.00 | 40 | 1015.6 |
| 20260904163114 | 75 | 158 | 4.0 | 6.0 | 0.00 | 0.00 | 0.00 | 41 | 1015.6 |
| 20260904162613 | 74 | 204 | 3.0 | 8.0 | 0.00 | 0.00 | 0.00 | 41 | 1015.4 |
| 20260904162109 | 74 | 239 | 4.0 | 12.0 | 0.00 | 0.00 | 0.00 | 41 | 1015.4 |
| 20260904161604 | 73 | 346 | 1.0 | 5.0 | 0.00 | 0.00 | 0.00 | 40 | 1015.6 |
| 20260904161059 | 73 | 264 | 3.0 | 6.0 | 0.00 | 0.00 | 0.00 | 44 | 1015.4 |
| 20260904160554 | 72 | 252 | 2.0 | 5.0 | 0.00 | 0.00 | 0.00 | 44 | 1015.1 |
| 20260904160050 | 72 | 325 | 2.0 | 3.0 | 0.00 | 0.00 | 0.00 | 45 | 1015.1 |
| 20260904155549 | 71 | 332 | 3.0 | 3.0 | 0.00 | 0.00 | 0.00 | 42 | 1015.1 |
| 20260904155044 | 72 | 258 | 2.0 | 2.0 | 0.00 | 0.00 | 0.00 | 43 | 1015.2 |
| 20260904154537 | 74 | 245 | 2.0 | 3.0 | 0.00 | 0.00 | 0.00 | 40 | 1015.4 |
| 20260904154032 | 72 | 199 | 0.0 | 2.0 | 0.00 | 0.00 | 0.00 | 45 | 1015.2 |
| 20260904153532 | 70 | 39 | 0.0 | 3.0 | 0.00 | 0.00 | 0.00 | 46 | 1015.0 |
| 20260904153028 | 68 | 34 | 1.0 | 2.0 | 0.00 | 0.00 | 0.00 | 46 | 1015.2 |
| 20260904152524 | 67 | 30 | 2.0 | 2.0 | 0.00 | 0.00 | 0.00 | 50 | 1015.1 |
| 20260904152019 | 66 | 35 | 2.0 | 3.0 | 0.00 | 0.00 | 0.00 | 50 | 1015.4 |
| 20260904151514 | 66 | 6 | 1.0 | 2.0 | 0.00 | 0.00 | 0.00 | 53 | 1014.9 |
| 20260904151009 | 64 | 46 | 3.0 | 6.0 | 0.00 | 0.00 | 0.00 | 52 | 1015.1 |
| 20260904150508 | 64 | 69 | 0.0 | 3.0 | 0.00 | 0.00 | 0.00 | 53 | 1015.0 |
| 20260904150003 | 64 | 295 | 0.0 | 2.0 | 0.00 | 0.00 | 0.00 | 52 | 1015.0 |
| 20260904145458 | 62 | 107 | 3.0 | 4.0 | 0.00 | 0.00 | 0.00 | 54 | 1015.0 |
| 20260904144953 | 61 | 72 | 2.0 | 4.0 | 0.00 | 0.00 | 0.00 | 56 | 1015.1 |
| 20260904144449 | 60 | 38 | 3.0 | 4.0 | 0.00 | 0.00 | 0.00 | 59 | 1015.0 |
| 20260904143944 | 59 | 43 | 3.0 | 5.0 | 0.00 | 0.00 | 0.00 | 61 | 1014.9 |
| 20260904143440 | 58 | 35 | 3.0 | 5.0 | 0.00 | 0.00 | 0.00 | 63 | 1014.9 |
| 20260904142936 | 57 | 77 | 3.0 | 5.0 | 0.00 | 0.00 | 0.00 | 64 | 1014.8 |
| 20260904142433 | 56 | 350 | 2.0 | 4.0 | 0.00 | 0.00 | 0.00 | 64 | 1014.8 |
| 20260904141927 | 56 | 67 | 3.0 | 4.0 | 0.00 | 0.00 | 0.00 | 66 | 1014.8 |
| 20260904141422 | 54 | 34 | 4.0 | 7.0 | 0.00 | 0.00 | 0.00 | 68 | 1014.7 |
| 20260904140919 | 53 | 107 | 3.0 | 4.0 | 0.00 | 0.00 | 0.00 | 71 | 1014.5 |
| 20260904140418 | 51 | 355 | 2.0 | 4.0 | 0.00 | 0.00 | 0.00 | 76 | 1014.4 |
| 20260904135918 | 48 | 269 | 0.0 | 2.0 | 0.00 | 0.00 | 0.00 | 78 | 1014.4 |
| 20260904135417 | 49 | 286 | 0.0 | 2.0 | 0.00 | 0.00 | 0.00 | 76 | 1014.3 |
| 20260904134914 | 49 | 119 | 2.0 | 2.0 | 0.00 | 0.00 | 0.00 | 76 | 1014.4 |
| 20260904134413 | 49 | 48 | 3.0 | 6.0 | 0.00 | 0.00 | 0.00 | 77 | 1014.4 |
| 20260904133909 | 48 | 269 | 0.0 | 2.0 | 0.00 | 0.00 | 0.00 | 76 | 1013.9 |
| 20260904133404 | 48 | 126 | 0.0 | 1.0 | 0.00 | 0.00 | 0.00 | 76 | 1014.3 |
| 20260904132904 | 48 | 88 | 2.0 | 4.0 | 0.00 | 0.00 | 0.00 | 78 | 1014.1 |
| 20260904132359 | 46 | 134 | 1.0 | 2.0 | 0.00 | 0.00 | 0.00 | 78 | 1014.1 |
| 20260904131859 | 46 | 55 | 1.0 | 2.0 | 0.00 | 0.00 | 0.00 | 79 | 1013.9 |
| 20260904131354 | 46 | 19 | 0.0 | 1.0 | 0.00 | 0.00 | 0.00 | 78 | 1013.9 |
| 20260904130849 | 47 | 315 | 0.0 | 1.0 | 0.00 | 0.00 | 0.00 | 78 | 1013.9 |
| 20260904130348 | 47 | 111 | 0.0 | 2.0 | 0.00 | 0.00 | 0.00 | 77 | 1013.6 |
| 20260904125844 | 47 | 137 | 1.0 | 2.0 | 0.00 | 0.00 | 0.00 | 76 | 1013.7 |
| 20260904125340 | 48 | 263 | 1.0 | 2.0 | 0.00 | 0.00 | 0.00 | 75 | 1013.5 |
| 20260904124839 | 49 | 56 | 1.0 | 4.0 | 0.00 | 0.00 | 0.00 | 72 | 1013.6 |
| 20260904124336 | 49 | 78 | 1.0 | 2.0 | 0.00 | 0.00 | 0.00 | 72 | 1013.6 |
| 20260904123831 | 49 | 59 | 1.0 | 2.0 | 0.00 | 0.00 | 0.00 | 71 | 1013.6 |
| 20260904123326 | 49 | 23 | 2.0 | 3.0 | 0.00 | 0.00 | 0.00 | 70 | 1013.4 |
| 20260904122821 | 49 | 48 | 4.0 | 5.0 | 0.00 | 0.00 | 0.00 | 69 | 1013.5 |
| 20260904122321 | 49 | 63 | 2.0 | 5.0 | 0.00 | 0.00 | 0.00 | 70 | 1013.4 |
| 20260904121816 | 48 | 61 | 2.0 | 3.0 | 0.00 | 0.00 | 0.00 | 71 | 1013.4 |
| 20260904121312 | 48 | 229 | 0.0 | 2.0 | 0.00 | 0.00 | 0.00 | 71 | 1013.4 |
| 20260904120809 | 48 | 81 | 0.0 | 1.0 | 0.00 | 0.00 | 0.00 | 71 | 1013.2 |
| 20260904120304 | 48 | 245 | 1.0 | 3.0 | 0.00 | 0.00 | 0.00 | 70 | 1013.4 |
| 20260904115758 | 48 | 339 | 0.0 | 2.0 | 0.00 | 0.00 | 0.00 | 68 | 1013.1 |
| 20260904115253 | 49 | 218 | 1.0 | 2.0 | 0.00 | 0.00 | 0.00 | 67 | 1013.1 |
| 20260904114743 | 49 | 66 | 0.0 | 2.0 | 0.00 | 0.00 | 0.00 | 66 | 1013.2 |
| 20260904114242 | 50 | 94 | 2.0 | 2.0 | 0.00 | 0.00 | 0.00 | 64 | 1013.4 |
| 20260904113738 | 51 | 300 | 0.0 | 6.0 | 0.00 | 0.00 | 0.00 | 64 | 1013.4 |
| 20260904113237 | 51 | 74 | 1.0 | 3.0 | 0.00 | 0.00 | 0.00 | 61 | 1013.0 |
| 20260904112732 | 51 | 65 | 0.0 | 5.0 | 0.00 | 0.00 | 0.00 | 60 | 1013.1 |
| 20260904112227 | 51 | 63 | 3.0 | 4.0 | 0.00 | 0.00 | 0.00 | 60 | 1013.1 |
| 20260904111722 | 52 | 92 | 2.0 | 4.0 | 0.00 | 0.00 | 0.00 | 59 | 1013.0 |
| 20260904111218 | 52 | 85 | 2.0 | 4.0 | 0.00 | 0.00 | 0.00 | 58 | 1012.9 |
| 20260904110713 | 52 | 111 | 2.0 | 3.0 | 0.00 | 0.00 | 0.00 | 58 | 1013.0 |
| 20260904110212 | 51 | 62 | 1.0 | 2.0 | 0.00 | 0.00 | 0.00 | 60 | 1013.1 |
| 20260904105707 | 50 | 65 | 1.0 | 1.0 | 0.00 | 0.00 | 0.00 | 61 | 1013.0 |
| 20260904105202 | 50 | 32 | 0.0 | 3.0 | 0.00 | 0.00 | 0.00 | 61 | 1013.0 |
| 20260904104658 | 50 | 249 | 0.0 | 0.0 | 0.00 | 0.00 | 0.00 | 64 | 1012.9 |
| 20260904104153 | 50 | 175 | 0.0 | 0.0 | 0.00 | 0.00 | 0.00 | 62 | 1012.9 |
| 20260904103650 | 50 | 147 | 0.0 | 1.0 | 0.00 | 0.00 | 0.00 | 60 | 1013.0 |
| 20260904103144 | 50 | 239 | 1.0 | 1.0 | 0.00 | 0.00 | 0.00 | 60 | 1013.0 |
| 20260904102641 | 51 | 228 | 0.0 | 2.0 | 0.00 | 0.00 | 0.00 | 60 | 1012.7 |
| 20260904102136 | 51 | 0 | 0.0 | 1.0 | 0.00 | 0.00 | 0.00 | 59 | 1012.8 |
| 20260904101633 | 51 | 111 | 0.0 | 1.0 | 0.00 | 0.00 | 0.00 | 57 | 1012.4 |
| 20260904101128 | 52 | 89 | 0.0 | 0.0 | 0.00 | 0.00 | 0.00 | 57 | 1012.7 |
| 20260904100624 | 53 | 21 | 1.0 | 1.0 | 0.00 | 0.00 | 0.00 | 55 | 1012.7 |
| 20260904100119 | 53 | 129 | 0.0 | 2.0 | 0.00 | 0.00 | 0.00 | 53 | 1012.7 |
| 20260904095613 | 55 | 180 | 0.0 | 3.0 | 0.00 | 0.00 | 0.00 | 51 | 1012.5 |
| 20260904095109 | 56 | 64 | 2.0 | 3.0 | 0.00 | 0.00 | 0.00 | 48 | 1012.2 |
| 20260904094609 | 56 | 119 | 3.0 | 4.0 | 0.00 | 0.00 | 0.00 | 47 | 1012.3 |
| 20260904094103 | 56 | 68 | 2.0 | 5.0 | 0.00 | 0.00 | 0.00 | 47 | 1012.4 |
| 20260904093601 | 56 | 46 | 7.0 | 8.0 | 0.00 | 0.00 | 0.00 | 47 | 1012.2 |
| 20260904093100 | 56 | 98 | 4.0 | 7.0 | 0.00 | 0.00 | 0.00 | 46 | 1012.4 |
| 20260904092556 | 56 | 62 | 3.0 | 6.0 | 0.00 | 0.00 | 0.00 | 46 | 1012.5 |
| 20260904092052 | 57 | 34 | 4.0 | 6.0 | 0.00 | 0.00 | 0.00 | 44 | 1012.4 |
| 20260904091543 | 57 | 44 | 6.0 | 7.0 | 0.00 | 0.00 | 0.00 | 44 | 1012.5 |
| 20260904091042 | 57 | 73 | 5.0 | 9.0 | 0.00 | 0.00 | 0.00 | 43 | 1012.4 |
| 20260904090538 | 57 | 89 | 6.0 | 9.0 | 0.00 | 0.00 | 0.00 | 43 | 1012.7 |
| 20260904090033 | 57 | 55 | 8.0 | 9.0 | 0.00 | 0.00 | 0.00 | 43 | 1012.3 |
| 20260904085528 | 57 | 73 | 3.0 | 8.0 | 0.00 | 0.00 | 0.00 | 44 | 1012.4 |
| 20260904085027 | 56 | 89 | 3.0 | 10.0 | 0.00 | 0.00 | 0.00 | 44 | 1012.4 |
| 20260904084523 | 56 | 48 | 5.0 | 8.0 | 0.00 | 0.00 | 0.00 | 44 | 1012.7 |
| 20260904084020 | 56 | 61 | 4.0 | 12.0 | 0.00 | 0.00 | 0.00 | 44 | 1012.5 |
| 20260904083515 | 56 | 52 | 4.0 | 8.0 | 0.00 | 0.00 | 0.00 | 44 | 1012.7 |
| 20260904083012 | 56 | 93 | 4.0 | 6.0 | 0.00 | 0.00 | 0.00 | 44 | 1012.8 |
| 20260904082512 | 56 | 125 | 3.0 | 6.0 | 0.00 | 0.00 | 0.00 | 44 | 1012.7 |
| 20260904082007 | 56 | 80 | 4.0 | 11.0 | 0.00 | 0.00 | 0.00 | 44 | 1012.7 |
| 20260904081502 | 56 | 56 | 6.0 | 7.0 | 0.00 | 0.00 | 0.00 | 43 | 1012.7 |
| 20260904080958 | 56 | 88 | 4.0 | 6.0 | 0.00 | 0.00 | 0.00 | 44 | 1012.8 |
| 20260904080453 | 56 | 74 | 4.0 | 5.0 | 0.00 | 0.00 | 0.00 | 44 | 1012.5 |